UAL2161 KEWR-KCLT

Flight info

Callsign UAL2161
Flight time 1h 16m
Altitude 38000
Route BIGGY Q75 GVE AIROW CHSLY6
Aircraft B38M/M-SDE1FGHILORVWXY/HB1

Departure

Time 2026-05-05 22:21
Airport Newark Liberty International Airport (KEWR)

Arrival

Time 2026-05-05 23:38
Airport Charlotte Douglas International Airport (KCLT)
Time Latitude Longitude Altitude Speed Heading
2026-05-05 22:06 40.69813 -74.17422 25 ft 0 kts 234°
2026-05-05 22:15 40.69821 -74.17411 28 ft 3 kts 208°
2026-05-05 22:15 40.69840 -74.17397 29 ft 4 kts 220°
2026-05-05 22:15 40.69854 -74.17371 29 ft 4 kts 265°
2026-05-05 22:16 40.69850 -74.17351 26 ft 1 kts 300°
2026-05-05 22:16 40.69849 -74.17348 27 ft 0 kts 300°
2026-05-05 22:19 40.69855 -74.17361 29 ft 5 kts 304°
2026-05-05 22:19 40.69927 -74.17383 27 ft 17 kts
2026-05-05 22:19 40.70037 -74.17339 26 ft 16 kts 68°
2026-05-05 22:19 40.70030 -74.17190 27 ft 18 kts 95°
2026-05-05 22:20 40.70018 -74.17008 24 ft 21 kts 95°
2026-05-05 22:20 40.70005 -74.16805 24 ft 23 kts 94°
2026-05-05 22:20 40.69990 -74.16584 24 ft 25 kts 95°
2026-05-05 22:20 40.69972 -74.16425 24 ft 13 kts 123°
2026-05-05 22:21 40.69906 -74.16440 22 ft 14 kts 206°
2026-05-05 22:21 40.69556 -74.16664 27 ft 98 kts 205°
2026-05-05 22:21 40.68734 -74.17176 237 ft 151 kts 211°
2026-05-05 22:21 40.67738 -74.17809 1207 ft 163 kts 209°
2026-05-05 22:22 40.66683 -74.18423 2247 ft 172 kts 202°
2026-05-05 22:22 40.65416 -74.18686 2941 ft 200 kts 185°
2026-05-05 22:22 40.63942 -74.18580 3647 ft 222 kts 184°
2026-05-05 22:22 40.62400 -74.18892 4404 ft 231 kts 206°
2026-05-05 22:23 40.60941 -74.19866 5310 ft 239 kts 210°
2026-05-05 22:23 40.59648 -74.21211 6399 ft 239 kts 234°
2026-05-05 22:23 40.58996 -74.23202 7371 ft 245 kts 255°
2026-05-05 22:23 40.58670 -74.25426 8370 ft 250 kts 258°
2026-05-05 22:24 40.58330 -74.27687 9415 ft 253 kts 258°
2026-05-05 22:24 40.57887 -74.29945 10334 ft 259 kts 251°
2026-05-05 22:24 40.57224 -74.32227 10911 ft 276 kts 251°
2026-05-05 22:24 40.56570 -74.34680 11565 ft 289 kts 252°
2026-05-05 22:25 40.55938 -74.37211 12466 ft 293 kts 253°
2026-05-05 22:25 40.55318 -74.39785 13368 ft 298 kts 253°
2026-05-05 22:25 40.54701 -74.42399 14229 ft 301 kts 253°
2026-05-05 22:25 40.54081 -74.45053 15052 ft 306 kts 253°
2026-05-05 22:26 40.53458 -74.47744 15852 ft 310 kts 253°
2026-05-05 22:26 40.52828 -74.50476 16647 ft 314 kts 253°
2026-05-05 22:26 40.52191 -74.53245 17422 ft 319 kts 253°
2026-05-05 22:26 40.51542 -74.56061 18185 ft 323 kts 254°
2026-05-05 22:27 40.51109 -74.57939 18616 ft 326 kts 254°
2026-05-05 22:27 40.50447 -74.60811 19257 ft 330 kts 254°
2026-05-05 22:27 40.49775 -74.63717 19899 ft 334 kts 254°
2026-05-05 22:27 40.49095 -74.66656 20529 ft 338 kts 254°
2026-05-05 22:28 40.48408 -74.69627 21146 ft 342 kts 254°
2026-05-05 22:28 40.47710 -74.72633 21766 ft 346 kts 254°
2026-05-05 22:28 40.47004 -74.75676 22388 ft 350 kts 254°
2026-05-05 22:28 40.46289 -74.78749 22986 ft 354 kts 254°
2026-05-05 22:29 40.45565 -74.81857 23584 ft 358 kts 254°
2026-05-05 22:29 40.44832 -74.85002 24068 ft 361 kts 254°
2026-05-05 22:29 40.44093 -74.88168 24570 ft 364 kts 254°
2026-05-05 22:29 40.43346 -74.91361 25062 ft 367 kts 254°
2026-05-05 22:30 40.42592 -74.94578 25540 ft 370 kts 253°
2026-05-05 22:30 40.41492 -74.97591 26010 ft 376 kts 236°
2026-05-05 22:30 40.39736 -75.00239 26526 ft 381 kts 231°
2026-05-05 22:30 40.37972 -75.02799 26929 ft 386 kts 231°
2026-05-05 22:31 40.36153 -75.05403 27395 ft 388 kts 231°
2026-05-05 22:31 40.34308 -75.08016 27820 ft 392 kts 230°
2026-05-05 22:31 40.32444 -75.10638 28311 ft 393 kts 230°
2026-05-05 22:31 40.30567 -75.13270 28725 ft 397 kts 230°
2026-05-05 22:32 40.28671 -75.15926 29149 ft 400 kts 230°
2026-05-05 22:32 40.26760 -75.18600 29567 ft 403 kts 230°
2026-05-05 22:32 40.24836 -75.21288 29967 ft 406 kts 230°
2026-05-05 22:32 40.22898 -75.23996 30336 ft 409 kts 231°
2026-05-05 22:33 40.20948 -75.26717 30695 ft 411 kts 231°
2026-05-05 22:33 40.19011 -75.29417 31044 ft 413 kts 231°
2026-05-05 22:33 40.17036 -75.32167 31361 ft 416 kts 232°
2026-05-05 22:33 40.15049 -75.34932 31687 ft 418 kts 232°
2026-05-05 22:34 40.13048 -75.37712 32052 ft 420 kts 232°
2026-05-05 22:34 40.11037 -75.40505 32383 ft 423 kts 233°
2026-05-05 22:34 40.09017 -75.43308 32734 ft 425 kts 233°
2026-05-05 22:34 40.06990 -75.46117 33200 ft 424 kts 233°
2026-05-05 22:35 40.04965 -75.48923 33584 ft 425 kts 234°
2026-05-05 22:35 40.02931 -75.51737 34002 ft 425 kts 234°
2026-05-05 22:35 40.00902 -75.54538 34393 ft 424 kts 234°
2026-05-05 22:35 39.98881 -75.57331 34718 ft 424 kts 234°
2026-05-05 22:36 39.96852 -75.60128 35054 ft 424 kts 234°
2026-05-05 22:36 39.94850 -75.62888 35404 ft 424 kts 234°
2026-05-05 22:36 39.92825 -75.65677 35749 ft 423 kts 233°
2026-05-05 22:36 39.90950 -75.68590 36079 ft 418 kts 238°
2026-05-05 22:37 39.89107 -75.71530 36402 ft 419 kts 237°
2026-05-05 22:37 39.87247 -75.74453 36705 ft 419 kts 237°
2026-05-05 22:37 39.85387 -75.77372 37003 ft 419 kts 236°
2026-05-05 22:37 39.83537 -75.80299 37333 ft 417 kts 237°
2026-05-05 22:38 39.81711 -75.83223 37689 ft 415 kts 237°
2026-05-05 22:38 39.79879 -75.86144 37895 ft 417 kts 237°
2026-05-05 22:38 39.77856 -75.88881 37870 ft 420 kts 231°
2026-05-05 22:39 39.73740 -75.94248 37863 ft 419 kts 232°
2026-05-05 22:39 39.69666 -75.99647 37883 ft 418 kts 232°
2026-05-05 22:40 39.65592 -76.05050 37871 ft 418 kts 232°
2026-05-05 22:40 39.61511 -76.10455 37864 ft 419 kts 232°
2026-05-05 22:41 39.57425 -76.15858 37868 ft 419 kts 232°
2026-05-05 22:41 39.53339 -76.21250 37874 ft 419 kts 232°
2026-05-05 22:42 39.49248 -76.26639 37874 ft 419 kts 232°
2026-05-05 22:42 39.45186 -76.31981 37877 ft 419 kts 232°
2026-05-05 22:43 39.41083 -76.37367 37879 ft 421 kts 232°
2026-05-05 22:43 39.36956 -76.42775 37907 ft 422 kts 232°
2026-05-05 22:44 39.32830 -76.48172 37904 ft 422 kts 232°
2026-05-05 22:44 39.28700 -76.53564 37915 ft 421 kts 233°
2026-05-05 22:45 39.24592 -76.58918 37851 ft 420 kts 233°
2026-05-05 22:45 39.20474 -76.64276 37882 ft 421 kts 233°
2026-05-05 22:46 39.16373 -76.69602 37879 ft 421 kts 233°
2026-05-05 22:46 39.12244 -76.74955 37908 ft 421 kts 233°
2026-05-05 22:47 39.08115 -76.80299 37904 ft 421 kts 233°
2026-05-05 22:47 39.03977 -76.85645 37883 ft 421 kts 232°
2026-05-05 22:48 38.99833 -76.90989 37896 ft 421 kts 233°
2026-05-05 22:48 38.95690 -76.96324 37901 ft 425 kts 233°
2026-05-05 22:49 38.91464 -77.01754 37889 ft 433 kts 233°
2026-05-05 22:49 38.87207 -77.07215 37885 ft 433 kts 233°
2026-05-05 22:50 38.82927 -77.12665 37889 ft 435 kts 232°
2026-05-05 22:50 38.78550 -77.18030 37866 ft 435 kts 232°
2026-05-05 22:51 38.74212 -77.23361 37877 ft 435 kts 232°
2026-05-05 22:51 38.69852 -77.28712 37865 ft 433 kts 232°
2026-05-05 22:52 38.65492 -77.34053 37863 ft 433 kts 232°
2026-05-05 22:52 38.61121 -77.39398 37910 ft 436 kts 232°
2026-05-05 22:53 38.56737 -77.44749 37907 ft 436 kts 232°
2026-05-05 22:53 38.52351 -77.50094 37905 ft 436 kts 232°
2026-05-05 22:54 38.47960 -77.55435 37907 ft 436 kts 232°
2026-05-05 22:54 38.43562 -77.60777 37900 ft 436 kts 233°
2026-05-05 22:55 38.39166 -77.66103 37903 ft 436 kts 233°
2026-05-05 22:55 38.34769 -77.71424 37910 ft 436 kts 233°
2026-05-05 22:56 38.30365 -77.76743 37915 ft 436 kts 233°
2026-05-05 22:56 38.25996 -77.82010 37926 ft 436 kts 233°
2026-05-05 22:57 38.21574 -77.87332 37918 ft 438 kts 233°
2026-05-05 22:57 38.17145 -77.92654 37909 ft 438 kts 233°
2026-05-05 22:58 38.12716 -77.97967 37938 ft 438 kts 233°
2026-05-05 22:58 38.08290 -78.03265 37944 ft 437 kts 233°
2026-05-05 22:59 38.03857 -78.08564 37911 ft 438 kts 233°
2026-05-05 22:59 37.99436 -78.13838 37941 ft 440 kts 233°
2026-05-05 23:00 37.92753 -78.21794 37928 ft 439 kts 233°
2026-05-05 23:00 37.88291 -78.27094 37928 ft 439 kts 233°
2026-05-05 23:01 37.83817 -78.32399 37926 ft 439 kts 233°
2026-05-05 23:01 37.79374 -78.37659 37930 ft 440 kts 233°
2026-05-05 23:02 37.75652 -78.42058 37933 ft 440 kts 233°
2026-05-05 23:02 37.73414 -78.44700 37927 ft 440 kts 233°
2026-05-05 23:03 37.66455 -78.52900 37938 ft 440 kts 233°
2026-05-05 23:03 37.61946 -78.58202 37916 ft 440 kts 233°
2026-05-05 23:04 37.57447 -78.63483 37951 ft 443 kts 232°
2026-05-05 23:04 37.52968 -78.68731 37947 ft 442 kts 233°
2026-05-05 23:05 37.48502 -78.73955 37957 ft 435 kts 233°
2026-05-05 23:05 37.44059 -78.79145 37954 ft 435 kts 233°
2026-05-05 23:06 37.39614 -78.84326 37952 ft 436 kts 233°
2026-05-05 23:06 37.35059 -78.89626 37950 ft 437 kts 233°
2026-05-05 23:07 37.30593 -78.94816 37956 ft 437 kts 233°
2026-05-05 23:07 37.26161 -78.99956 37961 ft 437 kts 233°
2026-05-05 23:08 37.21698 -79.05123 37950 ft 437 kts 233°
2026-05-05 23:08 37.17224 -79.10295 37955 ft 438 kts 233°
2026-05-05 23:09 37.12733 -79.15476 37954 ft 438 kts 233°
2026-05-05 23:09 37.08244 -79.20648 37955 ft 438 kts 233°
2026-05-05 23:10 37.03748 -79.25819 37967 ft 438 kts 233°
2026-05-05 23:10 36.99252 -79.30981 37924 ft 438 kts 233°
2026-05-05 23:11 36.94753 -79.36139 37957 ft 440 kts 234°
2026-05-05 23:11 36.90237 -79.41305 37959 ft 440 kts 234°
2026-05-05 23:12 36.88005 -79.43857 37808 ft 440 kts 234°
2026-05-05 23:12 36.85756 -79.46424 37475 ft 437 kts 234°
2026-05-05 23:12 36.83512 -79.48984 37130 ft 437 kts 233°
2026-05-05 23:12 36.81269 -79.51541 36769 ft 437 kts 233°
2026-05-05 23:13 36.79013 -79.54110 36426 ft 439 kts 233°
2026-05-05 23:13 36.76755 -79.56680 36050 ft 440 kts 233°
2026-05-05 23:13 36.74485 -79.59262 35712 ft 442 kts 232°
2026-05-05 23:13 36.72204 -79.61853 35382 ft 444 kts 232°
2026-05-05 23:14 36.69919 -79.64448 35051 ft 445 kts 232°
2026-05-05 23:14 36.67642 -79.67029 34736 ft 439 kts 232°
2026-05-05 23:14 36.63199 -79.72062 34588 ft 422 kts 232°
2026-05-05 23:15 36.61041 -79.74505 34236 ft 417 kts 232°
2026-05-05 23:15 36.58893 -79.76933 33829 ft 416 kts 232°
2026-05-05 23:15 36.56750 -79.79356 33398 ft 416 kts 231°
2026-05-05 23:15 36.54607 -79.81775 32934 ft 416 kts 231°
2026-05-05 23:16 36.52491 -79.84160 32531 ft 417 kts 231°
2026-05-05 23:16 36.50338 -79.86583 32115 ft 418 kts 230°
2026-05-05 23:16 36.47940 -79.88766 31664 ft 434 kts 221°
2026-05-05 23:16 36.45419 -79.90843 31237 ft 436 kts 221°
2026-05-05 23:17 36.42897 -79.92935 30810 ft 435 kts 221°
2026-05-05 23:17 36.40387 -79.95014 30356 ft 432 kts 221°
2026-05-05 23:17 36.37896 -79.97077 29808 ft 428 kts 220°
2026-05-05 23:17 36.35438 -79.99112 29103 ft 422 kts 220°
2026-05-05 23:18 36.33009 -80.01121 28344 ft 417 kts 220°
2026-05-05 23:18 36.30606 -80.03105 27582 ft 413 kts 220°
2026-05-05 23:18 36.28229 -80.05066 26867 ft 408 kts 220°
2026-05-05 23:18 36.25883 -80.07000 26169 ft 403 kts 220°
2026-05-05 23:19 36.23555 -80.08919 25498 ft 401 kts 220°
2026-05-05 23:19 36.21227 -80.10836 24829 ft 404 kts 220°
2026-05-05 23:19 36.18878 -80.12769 24171 ft 406 kts 219°
2026-05-05 23:19 36.16524 -80.14703 23524 ft 405 kts 219°
2026-05-05 23:20 36.14182 -80.16627 22782 ft 403 kts 219°
2026-05-05 23:20 36.11876 -80.18520 22062 ft 401 kts 219°
2026-05-05 23:20 36.09562 -80.20419 21324 ft 397 kts 219°
2026-05-05 23:20 36.07269 -80.22298 20636 ft 393 kts 218°
2026-05-05 23:21 36.05003 -80.24154 19965 ft 388 kts 218°
2026-05-05 23:21 36.02773 -80.25979 19304 ft 381 kts 218°
2026-05-05 23:21 36.00588 -80.27767 18722 ft 372 kts 218°
2026-05-05 23:21 35.98454 -80.29513 18137 ft 364 kts 218°
2026-05-05 23:22 35.92336 -80.34510 16252 ft 345 kts 218°
2026-05-05 23:22 35.91689 -80.35038 16059 ft 343 kts 218°
2026-05-05 23:23 35.89052 -80.37189 15210 ft 337 kts 217°
2026-05-05 23:23 35.86495 -80.39270 14649 ft 324 kts 217°
2026-05-05 23:23 35.84647 -80.40774 14256 ft 312 kts 217°
2026-05-05 23:23 35.82892 -80.42261 13848 ft 299 kts 222°
2026-05-05 23:24 35.81274 -80.43840 13270 ft 294 kts 222°
2026-05-05 23:24 35.79685 -80.45375 12851 ft 285 kts 221°
2026-05-05 23:24 35.78153 -80.46845 12540 ft 273 kts 221°
2026-05-05 23:24 35.76680 -80.48253 12239 ft 263 kts 221°
2026-05-05 23:25 35.75214 -80.49625 11945 ft 271 kts 217°
2026-05-05 23:25 35.74657 -80.50021 11810 ft 275 kts 210°
2026-05-05 23:26 35.66999 -80.59361 9839 ft 276 kts 232°
2026-05-05 23:26 35.65770 -80.61172 9452 ft 275 kts 232°
2026-05-05 23:27 35.64569 -80.62971 9067 ft 268 kts 232°
2026-05-05 23:27 35.63412 -80.64719 8699 ft 259 kts 232°
2026-05-05 23:27 35.62304 -80.66425 8331 ft 252 kts 232°
2026-05-05 23:27 35.61240 -80.68096 7956 ft 244 kts 231°
2026-05-05 23:28 35.60220 -80.69730 7600 ft 238 kts 232°
2026-05-05 23:28 35.59232 -80.71336 7256 ft 234 kts 232°
2026-05-05 23:28 35.58264 -80.72937 6898 ft 232 kts 231°
2026-05-05 23:28 35.57329 -80.74532 6600 ft 228 kts 232°
2026-05-05 23:29 35.56412 -80.76106 6255 ft 225 kts 232°
2026-05-05 23:29 35.55501 -80.77667 5883 ft 224 kts 232°
2026-05-05 23:29 35.54603 -80.79220 5518 ft 222 kts 232°
2026-05-05 23:29 35.53711 -80.80762 5155 ft 220 kts 232°
2026-05-05 23:30 35.52823 -80.82289 4801 ft 219 kts 232°
2026-05-05 23:30 35.52248 -80.83294 4569 ft 215 kts 232°
2026-05-05 23:30 35.51127 -80.85247 4086 ft 204 kts 231°
2026-05-05 23:30 35.50330 -80.86658 3749 ft 200 kts 232°
2026-05-05 23:31 35.49542 -80.88053 3386 ft 198 kts 232°
2026-05-05 23:31 35.48762 -80.89413 3103 ft 194 kts 232°
2026-05-05 23:31 35.47992 -80.90757 3006 ft 193 kts 232°
2026-05-05 23:31 35.47254 -80.92083 2987 ft 180 kts 233°
2026-05-05 23:32 35.46555 -80.93319 2995 ft 175 kts 232°
2026-05-05 23:32 35.45840 -80.94514 2993 ft 172 kts 221°
2026-05-05 23:32 35.44806 -80.95139 2972 ft 167 kts 188°
2026-05-05 23:32 35.43637 -80.95206 3022 ft 170 kts 184°
2026-05-05 23:33 35.42442 -80.95209 3004 ft 173 kts 182°
2026-05-05 23:33 35.41241 -80.95170 2994 ft 171 kts 180°
2026-05-05 23:33 35.40055 -80.95103 3010 ft 171 kts 179°
2026-05-05 23:33 35.38858 -80.95017 2998 ft 173 kts 179°
2026-05-05 23:34 35.37661 -80.94922 2998 ft 172 kts 179°
2026-05-05 23:34 35.36472 -80.94824 2993 ft 171 kts 178°
2026-05-05 23:34 35.35281 -80.94726 2989 ft 172 kts 178°
2026-05-05 23:34 35.34077 -80.94621 2915 ft 175 kts 178°
2026-05-05 23:35 35.32878 -80.94518 2725 ft 170 kts 179°
2026-05-05 23:35 35.32096 -80.94450 2608 ft 170 kts 179°
2026-05-05 23:35 35.30531 -80.94316 2338 ft 166 kts 179°
2026-05-05 23:35 35.29446 -80.94228 2136 ft 145 kts 178°
2026-05-05 23:36 35.28509 -80.94129 1946 ft 129 kts 179°
2026-05-05 23:36 35.27628 -80.94049 1739 ft 125 kts 179°
2026-05-05 23:36 35.26746 -80.93983 1570 ft 130 kts 178°
2026-05-05 23:36 35.26147 -80.93929 1513 ft 130 kts 180°
2026-05-05 23:37 35.25249 -80.93852 1283 ft 134 kts 178°
2026-05-05 23:37 35.24307 -80.93766 1141 ft 137 kts 181°
2026-05-05 23:37 35.23356 -80.93689 956 ft 135 kts 178°
2026-05-05 23:37 35.22437 -80.93613 774 ft 130 kts 181°
2026-05-05 23:38 35.21644 -80.93548 738 ft 84 kts 176°
2026-05-05 23:38 35.21252 -80.93514 736 ft 43 kts 176°
2026-05-05 23:38 35.20992 -80.93522 736 ft 28 kts 192°
2026-05-05 23:38 35.20906 -80.93606 735 ft 10 kts 287°
2026-05-05 23:39 35.20971 -80.93626 735 ft 11 kts
2026-05-05 23:39 35.21060 -80.93631 734 ft 14 kts 355°
2026-05-05 23:39 35.21169 -80.93641 735 ft 17 kts 356°
2026-05-05 23:39 35.21297 -80.93651 736 ft 20 kts 356°
2026-05-05 23:40 35.21443 -80.93663 735 ft 22 kts 355°
2026-05-05 23:40 35.21567 -80.93688 735 ft 15 kts 324°
2026-05-05 23:40 35.21626 -80.93767 735 ft 0 kts 310°
2026-05-05 23:40 35.21630 -80.93773 735 ft 3 kts 311°
2026-05-05 23:41 35.21668 -80.93826 735 ft 16 kts 311°
2026-05-05 23:41 35.21766 -80.93942 734 ft 10 kts 316°
2026-05-05 23:41 35.21796 -80.94023 735 ft 12 kts 249°
2026-05-05 23:41 35.21739 -80.94106 735 ft 14 kts 229°
2026-05-05 23:42 35.21674 -80.94210 735 ft 16 kts 252°
2026-05-05 23:42 35.21673 -80.94357 734 ft 16 kts 257°
2026-05-05 23:42 35.21632 -80.94490 735 ft 18 kts 259°
2026-05-05 23:42 35.21620 -80.94652 735 ft 20 kts 265°
2026-05-05 23:43 35.21610 -80.94829 735 ft 16 kts 266°
2026-05-05 23:43 35.21668 -80.94931 734 ft 17 kts 359°
2026-05-05 23:43 35.21795 -80.94929 735 ft 20 kts 358°
2026-05-05 23:43 35.21935 -80.94925 735 ft 20 kts 356°
2026-05-05 23:44 35.22081 -80.94943 735 ft 22 kts 355°
2026-05-05 23:44 35.22245 -80.94955 735 ft 24 kts
2026-05-05 23:44 35.22357 -80.94873 735 ft 10 kts 80°
2026-05-05 23:44 35.22357 -80.94775 735 ft 12 kts 109°
2026-05-05 23:45 35.22325 -80.94753 735 ft 3 kts 177°
2026-05-05 23:45 35.22319 -80.94753 735 ft 0 kts 176°